Location: ??????????
(42.1626°N, 44.1160°E)
Time: 14:56:42
(UTC+00:00)

Cosmos 2154 Rocket - Pass Details

Date: 03 March 2021
Orbit: 967 x 996 km, 82.9° (Epoch: 20 April)

Event Time Altitude Azimuth Distance (km) Brightness Sun altitude
Rises 15:47:33 0° 183° (S) 3,657 7.0 -10.4°
Reaches altitude 10° 15:50:02 10° 182° (S) 2,710 6.4 -10.8°
Maximum altitude 15:56:15 83° 96° (E) 982 4.0 -12.0°
Drops below altitude 10° 16:02:28 10° 9° (N) 2,716 6.3 -13.1°
Sets 16:04:59 0° 9° (N) 3,667 7.0 -13.6°
